sat.trackr.live / text

‹ back to catalog

ONEWEB-0386

NORAD 49312 · 2021-090AK

PAYLOAD ACTIVE UNKNOWN

§ Identity

Operator
Country
UK
Launch date
2021-10-14
Launch site
VOSTO
Launch vehicle
Mass (kg)
RCS (m²)

Purposes: comms

External: N2YO · Heavens-Above · Gunter

§ Orbital elements

Epoch: 2026-05-24T21:33:29.842848Z

Period
109.03 min
Inclination
87.9181°
Eccentricity
0.0002101
Mean motion
13.20771478 rev/d
Perigee alt
1,180.2 km
Apogee alt
1,183.4 km
Semi-major
7,559.9 km
B*
-2.7355e-4
RAAN
279.0734°
Arg perigee
94.5443°
Mean anomaly
265.5930°
Rev number
22,674

§ Raw data

ONEWEB-03861 49312U 21090AK  26144.89826207 -.00000098  00000+0 -27355-3 0  99932 49312  87.9181 279.0734 0002101  94.5443 265.5930 13.20771478226741

JSON: /api/v1/satellites/49312 · /tle

For live sub-satellite position, see the globe view (requires WebGL).

§ Visibility from observer

Set your observer location to see the next 7 days of passes ≥ 10°. The values pass through the URL so the page stays shareable.

No JS? Fill the form by hand. The geolocation button needs JavaScript.